Location: Crescent
(42.8242°N, 73.7329°W)
Time: 20:47:07
(UTC+00:00)

SR - Pass Details

Date: 25 February 2026
Orbit: 573 x 848 km, 66.7° (Epoch: 6 March)

Event Time Altitude Azimuth Distance (km) Brightness Sun altitude
Rises 06:26:49 0° 171° (S) 2,764 - -52.1°
Reaches altitude 10° 06:29:31 10° 152° (SSE) 1,883 - -51.8°
Maximum altitude 06:32:27 19° 108° (ESE) 1,437 - -51.5°
Drops below altitude 10° 06:35:28 10° 63° (ENE) 1,949 - -51.2°
Sets 06:38:19 0° 46° (NE) 2,899 - -50.9°
